Location: Trenton
(45.6167°N, 62.6167°W)
Time: 11:49:33
(UTC+00:00)

Envisat - Visible Passes

Search period start: 20 September 2021 00:00
Search period end: 30 September 2021 00:00
Orbit: 764 x 766 km, 98.2° (Epoch: 20 September)

Date Brightness Start Highest point End Pass type
(mag) Time Alt. Az. Time Alt. Az. Time Alt. Az.
20 Sep 4.7 08:45:54 10° NNE 08:50:34 35° E 08:55:12 10° SSE visible
21 Sep 5.9 08:10:06 10° NE 08:13:23 17° E 08:16:38 10° SE visible
22 Sep 3.7 09:10:58 10° NNE 09:16:01 60° E 09:21:02 10° S visible
23 Sep 5.1 08:34:36 10° NE 08:38:58 28° E 08:43:19 10° SSE visible
24 Sep 6.0 07:59:18 10° ENE 08:01:43 13° E 08:04:08 10° ESE visible
25 Sep 4.1 08:59:32 10° NNE 09:04:28 48° E 09:09:21 10° S visible
26 Sep 5.5 08:23:22 10° NE 08:27:22 23° E 08:31:20 10° SE visible
27 Sep 6.3 07:49:23 10° ENE 07:50:03 10° E 07:50:43 10° E visible
27 Sep 3.2 09:24:45 10° NNE 09:29:52 81° ESE 09:34:57 10° SSW visible
28 Sep 4.6 08:48:10 10° NNE 08:52:54 38° E 08:57:37 10° SSE visible
29 Sep 5.8 08:12:16 10° NE 08:15:43 18° E 08:19:11 10° SE visible
